Eindhoven, Netherlands

1:36 AM CEST on March 27, 2017 (GMT +0200)
Eindhoven Air Base

Weather History for EHEH - February, 2013

Change the Weather History Date:

Saturday, February 23, 2013

  Actual Average Record
Temperature  
Mean Temperature 28 °F -  
Max Temperature 33 °F 48 °F 60 °F (1999)
Min Temperature 22 °F 34 °F 22 °F (2013)
Degree Days  
Heating Degree Days 38    
Moisture  
Dew Point 22 °F    
Average Humidity 75    
Maximum Humidity 93    
Minimum Humidity 53    
Precipitation  
Precipitation 0.01 in - - ()
Sea Level Pressure  
Sea Level Pressure 30.03 in    
Wind  
Wind Speed 11 mph ()    
Max Wind Speed 20 mph    
Max Gust Speed -    
Visibility 5.4 miles    
Events Snow    
Averages and records for this station are not official NWS values.
T = Trace of Precipitation, MM = Missing Value Source: Averaged Metar Reports

Daily Weather History Graph

Daily Weather History Graph

Search for Another Location

Airport or City:

Trip Planner

Search our weather history database for the weather conditions in past years. The results will help you decide how hot, cold, wet, or windy it might be!

Date:

Astronomy

Feb. 23, 2013 Rise Set
Actual Time 7:35 AM CET 6:08 PM CET
Civil Twilight 7:02 AM CET 6:42 PM CET
Nautical Twilight 6:23 AM CET 7:20 PM CET
Astronomical Twilight 5:44 AM CET 7:59 PM CET
Moon 3:54 PM CET (2/23) 5:59 AM CET (2/23)
Length of Visible Light 11h 39m
Length of Day
10h 32m
Waxing Gibbous, 94% of the Moon is Illuminated
Feb 23
Waxing Gibbous
Feb 25
Full
Mar 4
Last Quarter
Mar 11
New
Mar 19
First Quarter

Hourly Weather History & Observations

Time (CET) Temp. Windchill Dew Point Humidity Pressure Visibility Wind Dir Wind Speed Gust Speed Precip Events Conditions
12:25 AM 24.8 °F 15.3 °F 19.4 °F 80% 30.04 in 5.0 mi NE 9.2 mph - N/A   Haze
12:30 AM 24.8 °F 15.3 °F 19.4 °F 80% 30.04 in 4.3 mi NE 9.2 mph - N/A   Haze
12:35 AM 24.8 °F 15.3 °F 19.4 °F 80% 30.04 in 5.0 mi NE 9.2 mph - N/A   Haze
12:36 AM 24.8 °F 14.6 °F 19.4 °F 80% 30.04 in 4.3 mi NE 10.4 mph - N/A   Haze
12:43 AM 24.8 °F 14.6 °F 19.4 °F 80% 30.04 in 5.0 mi NE 10.4 mph - N/A   Haze
12:55 AM 24.8 °F 14.6 °F 19.4 °F 80% 30.04 in 5.0 mi NE 10.4 mph - N/A   Haze
1:00 AM 25 °F - 19 °F 70% 30.06 in 4 mi NE 11.2 mph - -   Light Haze
1:02 AM 24.8 °F 14.0 °F 19.4 °F 80% 30.04 in 4.3 mi NE 11.5 mph - N/A   Haze
1:25 AM 24.8 °F 14.6 °F 19.4 °F 80% 30.04 in 4.3 mi NE 10.4 mph - N/A   Haze
1:55 AM 24.8 °F 14.0 °F 21.2 °F 86% 30.04 in 4.3 mi NE 11.5 mph - N/A   Haze
2:25 AM 26.6 °F 15.7 °F 21.2 °F 80% 30.04 in 4.3 mi NE 12.7 mph - N/A   Overcast
2:55 AM 26.6 °F 15.7 °F 21.2 °F 80% 30.04 in 4.3 mi NE 12.7 mph - N/A   Haze
3:25 AM 26.6 °F 15.2 °F 19.4 °F 74% 30.04 in 4.3 mi NE 13.8 mph - N/A   Haze
3:55 AM 24.8 °F 14.0 °F 19.4 °F 80% 30.04 in 3.7 mi NE 11.5 mph - N/A   Haze
4:00 AM 25 °F - 19 °F 70% 30.04 in 4 mi NE 11.2 mph - -   Light Haze
4:25 AM 24.8 °F 14.0 °F 19.4 °F 80% 30.04 in 3.7 mi NE 11.5 mph - N/A   Haze
4:55 AM 23.0 °F 13.1 °F 19.4 °F 86% 30.01 in 3.7 mi NNE 9.2 mph - N/A   Mist
5:25 AM 23.0 °F 11.7 °F 19.4 °F 86% 30.01 in 3.7 mi NNE 11.5 mph - N/A   Mist
5:55 AM 23.0 °F 12.4 °F 19.4 °F 86% 30.01 in 3.7 mi NNE 10.4 mph - N/A   Mist
6:25 AM 23.0 °F 12.4 °F 19.4 °F 86% 30.01 in 3.7 mi NNE 10.4 mph - N/A   Mist
6:55 AM 23.0 °F 12.4 °F 19.4 °F 86% 30.01 in 3.7 mi NNE 10.4 mph - N/A   Mist
7:00 AM 23 °F - 19 °F 79% 30.04 in 4 mi NNE 11.2 mph - -   Mist
7:25 AM 23.0 °F 12.4 °F 19.4 °F 86% 30.04 in 3.7 mi NNE 10.4 mph - N/A   Mist
7:55 AM 24.8 °F 14.0 °F 19.4 °F 80% 30.04 in 3.7 mi NNE 11.5 mph - N/A   Partly Cloudy
8:25 AM 24.8 °F 14.6 °F 19.4 °F 80% 30.04 in 3.7 mi NNE 10.4 mph - N/A   Partly Cloudy
8:55 AM 24.8 °F 14.0 °F 21.2 °F 86% 30.04 in 3.7 mi NNE 11.5 mph - N/A   Mostly Cloudy
9:25 AM 26.6 °F 15.7 °F 21.2 °F 80% 30.04 in 4.3 mi NNE 12.7 mph - N/A   Mostly Cloudy
9:55 AM 28.4 °F 17.0 °F 21.2 °F 74% 30.04 in 5.0 mi NNE 15.0 mph - N/A   Haze
10:00 AM 28 °F - 21 °F 66% 30.05 in 6 mi NNE 15.7 mph - -   Light Haze
10:25 AM 28.4 °F 16.6 °F 21.2 °F 74% 30.04 in 5.6 mi NNE 16.1 mph - N/A   Haze
10:55 AM 28.4 °F 15.4 °F 21.2 °F 74% 30.04 in 6.2 mi NNE 19.6 mph - N/A   Mostly Cloudy
11:25 AM 30.2 °F 18.9 °F 23.0 °F 75% 30.04 in 5.6 mi NE 16.1 mph - N/A Snow Light Snow
11:55 AM 30.2 °F 18.5 °F 23.0 °F 75% 30.04 in 5.0 mi NE 17.3 mph - N/A   Haze
12:25 PM 30.2 °F 18.5 °F 23.0 °F 75% 30.04 in 6.2 mi NE 17.3 mph - N/A   Overcast
12:55 PM 30.2 °F 19.3 °F 23.0 °F 75% 30.04 in 6.2 mi NNE 15.0 mph - N/A   Overcast
1:00 PM 30 °F - 23 °F 65% 30.04 in 6 mi NNE 15.7 mph - - Snow Snow Grains
1:25 PM 30.2 °F 18.5 °F 23.0 °F 75% 30.01 in 3.1 mi NNE 17.3 mph - N/A Snow Light Snow
1:55 PM 32.0 °F 21.6 °F 24.8 °F 75% 30.01 in 5.0 mi NNE 15.0 mph - N/A   Haze
2:25 PM 32.0 °F 21.6 °F 23.0 °F 69% 30.01 in 4.3 mi NNE 15.0 mph - N/A   Haze
2:55 PM 32.0 °F 21.6 °F 21.2 °F 64% 30.01 in 6.2 mi NNE 15.0 mph - N/A   Overcast
3:25 PM 32.0 °F 20.8 °F 23.0 °F 69% 30.01 in 6.2 mi NNE 17.3 mph - N/A   Overcast
3:55 PM 33.8 °F 23.5 °F 23.0 °F 65% 30.01 in 6.2 mi NNE 16.1 mph - N/A   Overcast
4:00 PM 33 °F - 22 °F 53% 30.02 in 13 mi NNE 15.7 mph - -   Partly Cloudy
4:25 PM 33.8 °F 23.9 °F 23.0 °F 65% 30.01 in 6.2 mi NNE 15.0 mph - N/A   Overcast
4:55 PM 32.0 °F 21.6 °F 23.0 °F 69% 30.01 in 6.2 mi NNE 15.0 mph - N/A   Overcast
5:25 PM 32.0 °F 21.6 °F 23.0 °F 69% 30.01 in 6.2 mi NNE 15.0 mph - N/A   Overcast
5:55 PM 32.0 °F 22.1 °F 23.0 °F 69% 30.01 in 6.2 mi NNE 13.8 mph - N/A   Overcast
6:25 PM 32.0 °F 22.5 °F 23.0 °F 69% 30.01 in 6.2 mi North 12.7 mph - N/A   Overcast
6:55 PM 32.0 °F 22.5 °F 23.0 °F 69% 30.01 in 6.2 mi NNE 12.7 mph - N/A   Overcast
7:00 PM 32 °F - 23 °F 59% 30.04 in 14 mi North 11.2 mph - -   Partly Cloudy
7:25 PM 32.0 °F 22.5 °F 23.0 °F 69% 30.01 in 6.2 mi North 12.7 mph - N/A   Overcast
7:55 PM 32.0 °F 22.1 °F 23.0 °F 69% 30.01 in 6.2 mi NNE 13.8 mph - N/A   Overcast
8:25 PM 32.0 °F 22.5 °F 23.0 °F 69% 30.01 in 6.2 mi NNE 12.7 mph - N/A   Overcast
8:55 PM 32.0 °F 22.1 °F 23.0 °F 69% 30.01 in 6.2 mi NNE 13.8 mph - N/A   Overcast
9:25 PM 32.0 °F 22.1 °F 23.0 °F 69% 30.04 in 6.2 mi NNE 13.8 mph - N/A   Overcast
9:55 PM 32.0 °F 23.0 °F 23.0 °F 69% 30.04 in 6.2 mi North 11.5 mph - N/A   Overcast
10:00 PM 32 °F - 24 °F 61% 30.05 in 10 mi North 13.4 mph - -   Overcast
10:02 PM 32.0 °F 22.5 °F 24.8 °F 75% 30.04 in 6.2 mi North 12.7 mph - N/A   Overcast
10:25 PM 32.0 °F 22.1 °F 24.8 °F 75% 30.04 in 6.2 mi NNE 13.8 mph - N/A   Overcast
10:55 PM 32.0 °F 22.5 °F 24.8 °F 75% 30.04 in 6.2 mi NNE 12.7 mph - N/A Snow Light Snow
11:25 PM 30.2 °F 19.8 °F 28.4 °F 93% 30.04 in - North 13.8 mph - N/A Snow Light Snow
11:55 PM 30.2 °F 20.8 °F 28.4 °F 93% 30.04 in - North 11.5 mph - N/A Snow Light Snow